User: anonymous
Location: Theodore Roosevelt National Park
(46.9990°N, 103.4631°W)
Time: 14:12:43
(UTC-06:00)
Language:

Cosmos 2219 Rocket - Orbit

View from above orbital plane
View from above orbital plane
View from above satellite
View from above satellite

Ground track
Ground track

The orbit data is extracted from the following two-line orbital elements,

1 22220U 92076B   14241.48543126 -.00000038  00000-0  48540-5 0  3854
2 22220 071.0008 051.8303 0012186 021.7273 042.1467 14.16317287125963
Epoch (UTC): 29 August 2014 11:39:01
Eccentricity: 0.0012186
inclination: 71.0008°
perigee height: 829 km
apogee height: 846 km
right ascension of ascending node: 51.8303°
argument of perigee: 21.7273°
revolutions per day: 14.16317287
mean anomaly at epoch: 42.1467°
orbit number at epoch: 12596

The dashed part of the orbit path shows where the satellite is in the earth's shadow,  

DLR